CZ-4B R/B (46397 NORAD) Tracking and Keplerian Element Data

This shows tracking and keplerian element data for the satellite.

Feedback or suggestion? Click here.




ElementValue
Catalog46397
NameCZ-4B R/B
Epoch Orbit466
Epoch Day280.90663642
Epoch Year2020
RAAN34.2407
Inclination97.2641
Eccentricity0.0174255
Argument of Perigee39.4061
Mean Anonmoly321.9729
Mean Motion15.74794866
Decay Rate0.00123145
L11 46397U 20064B 20280.90663642 .00123145 66162-5 30749-3 0 9997
L22 46397 97.2641 34.2407 0174255 39.4061 321.9729 15.74794866 4663



Live tracking and technical data element details for CZ-4B R/B (NORAD 46397). CZ-4B R/B can be tracked NOW for your location showing map with azimuth and elevation plus other details from your city location.







IsCatalogInMostPopularTable: catalog: 46397, numindb: 139
Update: records affected: 1



GetName: 46397 CZ-4B R/B

Hit Count: updated at: Sun, 28 May 2023 19:44:43 GMT